{"data":{"norad_id":48892,"intl_designator":"2021-059P","name":"TYVAK-0173","alt_names":[],"object_type":"PAYLOAD","status":"ACTIVE","operator":null,"country":"AUS","launch_date":"2021-06-30","launch_site_code":"AFETR","launch_vehicle":null,"mission":null,"orbit_class":"UNKNOWN","rcs_meters":null,"size_class":null,"mass_kg":null,"dimensions":null,"purposes":[],"wikipedia_slug":null,"has_3d_model":false,"image_url":null,"decayed_at":null,"tle_current":{"epoch":"2026-09-20T14:26:08.075040Z","epoch_age_seconds":89054,"freshness":"FRESH","line1":"1 48892U 21059P   26263.60148235  .00000870  00000+0  11327-3 0  9997","line2":"2 48892  95.9985 316.2073 0010795  70.3717 289.8665 14.82126935282374","mean_motion":14.82126935,"eccentricity":0.0010795,"inclination_deg":95.9985,"raan_deg":316.2073,"arg_perigee_deg":70.3717,"mean_anomaly_deg":289.8665,"bstar":0.00011327,"rev_number":28237,"period_min":97.157670236929,"perigee_km":615.06114913548,"apogee_km":630.17578018368,"semimajor_km":7000.7554646596,"source":"CELESTRAK","updated_at":"2026-09-21T09:00:07.902431Z"}}}